Weather History for Topeka, KS

Change the Weather History Date:

Saturday, October 2, 2010

  Actual Average Record
Temperature  
Mean Temperature 54 °F 61 °F  
Max Temperature 66 °F 74 °F 95 °F (1963)
Min Temperature 42 °F 49 °F 32 °F (2004)
Degree Days  
Heating Degree Days 11 6  
Month to date heating degree days 13 11  
Since 1 July heating degree days 37 78  
Cooling Degree Days 0 2  
Month to date cooling degree days 0 4  
Year to date cooling degree days 1831 1397  
Growing Degree Days 7 (Base 50)    
Moisture  
Dew Point 43 °F    
Average Humidity 65    
Maximum Humidity 93    
Minimum Humidity 36    
Precipitation  
Precipitation 0.00 in 0.13 in 2.10 in (1941)
Month to date precipitation 0.00 0.25  
Year to date precipitation 33.74 30.48  
Snow  
Snow 0.00 in 0.00 in 0.00 in ()
Month to date snowfall 0.0 0.0  
Year to date snowfall 21.5 11.3  
Since 1 July snowfall 0.0 0.0  
Snow Depth 0.00 in    
Sea Level Pressure  
Sea Level Pressure 30.25 in    
Wind  
Wind Speed 10 mph (North)    
Max Wind Speed 22 mph    
Max Gust Speed 32 mph    
Visibility 9 miles    
Events      
T = Trace of Precipitation, MM = Missing Value Source: NWS Daily Summary

Daily Weather History Graph

Daily Weather History Graph

Search for Another Location

Airport:

Trip Planner

Search our weather history database for the weather conditions in past years. The results will help you decide how hot, cold, wet, or windy it might be!

Date:

Astronomy

Oct. 02, 2010 Rise Set
Actual Time 7:19 AM CDT 7:03 PM CDT
Civil Twilight 6:52 AM CDT 7:30 PM CDT
Nautical Twilight 6:21 AM CDT 8:01 PM CDT
Astronomical Twilight 5:50 AM CDT 8:32 PM CDT
Moon 1:08 AM CDT (10/2) 3:49 PM CDT (10/2)
Length of Visible Light 12h 37m
Length of Day
11h 44m
Waning Crescent, 33% of the Moon is Illuminated
Oct 2
Waning Crescent
Oct 7
New
Oct 14
First Quarter
Oct 22
Full
Oct 30
Last Quarter

Hourly Weather History & Observations

Time (CDT) Temp. Dew Point Humidity Pressure Visibility Wind Dir Wind Speed Gust Speed Precip Events Conditions
12:53 AM 57.0 °F 54.0 °F 89% 30.06 in 10.0 mi Calm Calm - N/A   Clear
1:20 AM 53.6 °F 51.8 °F 94% 30.08 in 1.8 mi Calm Calm - N/A   Partly Cloudy
1:26 AM 53.6 °F 51.8 °F 94% 30.08 in 3.0 mi Calm Calm - N/A   Partly Cloudy
1:53 AM 54.0 °F 51.1 °F 90% 30.07 in 10.0 mi Calm Calm - N/A   Scattered Clouds
2:53 AM 59.0 °F 48.9 °F 69% 30.09 in 10.0 mi West 4.6 mph - N/A   Mostly Cloudy
3:53 AM 59.0 °F 48.9 °F 69% 30.12 in 10.0 mi North 11.5 mph 21.9 mph N/A   Partly Cloudy
4:53 AM 57.9 °F 46.9 °F 67% 30.15 in 10.0 mi North 13.8 mph 20.7 mph N/A   Clear
5:53 AM 55.0 °F 46.0 °F 72% 30.19 in 10.0 mi North 11.5 mph 18.4 mph N/A   Clear
6:53 AM 54.0 °F 45.0 °F 72% 30.23 in 10.0 mi North 12.7 mph 21.9 mph N/A   Clear
7:53 AM 53.1 °F 45.0 °F 74% 30.27 in 10.0 mi North 10.4 mph - N/A   Clear
8:53 AM 55.0 °F 46.0 °F 72% 30.30 in 10.0 mi North 11.5 mph 18.4 mph N/A   Clear
9:53 AM 59.0 °F 44.1 °F 58% 30.32 in 10.0 mi NNE 16.1 mph 23.0 mph N/A   Clear
10:53 AM 61.0 °F 43.0 °F 52% 30.32 in 10.0 mi NNE 13.8 mph 21.9 mph N/A   Clear
11:53 AM 64.0 °F 43.0 °F 46% 30.33 in 10.0 mi North 15.0 mph 23.0 mph N/A   Scattered Clouds
12:53 PM 64.0 °F 41.0 °F 43% 30.34 in 10.0 mi North 18.4 mph 24.2 mph N/A   Mostly Cloudy
1:53 PM 64.9 °F 39.9 °F 40% 30.32 in 10.0 mi North 18.4 mph 24.2 mph N/A   Partly Cloudy
2:53 PM 66.0 °F 39.0 °F 37% 30.31 in 10.0 mi North 20.7 mph 25.3 mph N/A   Clear
3:53 PM 64.9 °F 37.0 °F 36% 30.30 in 10.0 mi NNE 12.7 mph 24.2 mph N/A   Clear
4:53 PM 63.0 °F 36.0 °F 37% 30.30 in 10.0 mi NNE 15.0 mph - N/A   Clear
5:53 PM 62.1 °F 36.0 °F 38% 30.31 in 10.0 mi NE 11.5 mph - N/A   Clear
6:53 PM 57.0 °F 37.9 °F 49% 30.31 in 10.0 mi NNE 5.8 mph - N/A   Clear
7:53 PM 53.1 °F 37.9 °F 57% 30.33 in 10.0 mi NNE 4.6 mph - N/A   Clear
8:53 PM 50.0 °F 39.0 °F 66% 30.35 in 10.0 mi North 5.8 mph - N/A   Clear
9:53 PM 50.0 °F 39.0 °F 66% 30.35 in 10.0 mi Calm Calm - N/A   Clear
10:53 PM 48.0 °F 39.0 °F 71% 30.37 in 10.0 mi Calm Calm - N/A   Clear
11:53 PM 44.1 °F 37.9 °F 79% 30.38 in 10.0 mi Calm Calm - N/A   Clear